Terug naar catalogus

TITAN 3C TRANSTAGE DEB

ActiefLEO
NORAD 1642·DEBRIS·🇺🇸 United States

Gelanceerd Oct 15, 1965 vanaf Cape Canaveral Space Force Station

Loading…

Volgende Passages (komende 24 uur)

TLE

VersSource: Space-Track

Epoch: Sep 14, 2026, 15:05 UTC

1 01642U 65082D   26257.62861843  .00000658  00000-0  70672-4 0  9999
2 01642  32.0946 357.3107 0022791  91.3128 269.0134 14.84634895250880

Volg TITAN 3C TRANSTAGE DEB in realtime met AllMySat

Download on the App Store